Time,TemperatureF,DewpointF,PressureIn,WindDirection,WindDirectionDegrees,WindSpeedMPH,WindSpeedGustMPH,Humidity,HourlyPrecipIn,Conditions,Clouds,dailyrainin,SoftwareType,DateUTC
2013-01-20 00:00:00,64.0,52.0,30.11,NE,42,4.0,8.0,65,0.00,,,0.00,VWS V14.01,2013-01-20 05:00:00,
2013-01-20 00:07:00,63.5,52.0,30.12,North,360,5.0,12.0,66,0.00,,,0.00,VWS V14.01,2013-01-20 05:07:00,
2013-01-20 00:10:00,63.5,52.0,30.12,North,360,5.0,12.0,66,0.00,,,0.00,VWS V14.01,2013-01-20 05:10:00,
2013-01-20 00:17:00,63.0,51.5,30.12,NNE,22,5.0,10.0,66,0.00,,,0.00,VWS V14.01,2013-01-20 05:17:00,
2013-01-20 00:20:00,63.0,51.5,30.12,NNE,22,5.0,10.0,66,0.00,,,0.00,VWS V14.01,2013-01-20 05:20:00,
2013-01-20 00:27:00,62.6,51.1,30.11,NNE,16,4.0,9.0,66,0.00,,,0.00,VWS V14.01,2013-01-20 05:27:00,
2013-01-20 00:30:00,62.6,51.1,30.11,NNE,16,4.0,9.0,66,0.00,,,0.00,VWS V14.01,2013-01-20 05:30:00,
2013-01-20 00:37:00,62.3,51.2,30.10,NNE,16,2.0,5.0,67,0.00,,,0.00,VWS V14.01,2013-01-20 05:37:00,
2013-01-20 00:40:00,62.3,51.2,30.10,NNE,16,2.0,5.0,67,0.00,,,0.00,VWS V14.01,2013-01-20 05:40:00,
2013-01-20 00:47:00,61.9,50.8,30.11,NNE,16,3.0,5.0,67,0.00,,,0.00,VWS V14.01,2013-01-20 05:47:00,
2013-01-20 00:50:00,61.9,50.8,30.11,NNE,16,3.0,5.0,67,0.00,,,0.00,VWS V14.01,2013-01-20 05:50:00,
2013-01-20 00:57:00,61.6,51.0,30.10,NNE,16,3.0,4.0,68,0.00,,,0.00,VWS V14.01,2013-01-20 05:57:00,
2013-01-20 01:00:00,61.6,51.0,30.10,NNE,16,3.0,4.0,68,0.00,,,0.00,VWS V14.01,2013-01-20 06:00:00,
2013-01-20 01:07:00,61.4,50.8,30.10,NNE,24,2.0,5.0,68,0.00,,,0.00,VWS V14.01,2013-01-20 06:07:00,
2013-01-20 01:10:00,61.4,50.8,30.10,NNE,24,2.0,5.0,68,0.00,,,0.00,VWS V14.01,2013-01-20 06:10:00,
2013-01-20 01:17:00,61.3,51.1,30.09,NE,34,0.0,7.0,69,0.00,,,0.00,VWS V14.01,2013-01-20 06:17:00,
2013-01-20 01:20:00,61.3,51.1,30.09,NE,34,0.0,7.0,69,0.00,,,0.00,VWS V14.01,2013-01-20 06:20:00,
2013-01-20 01:27:00,61.2,51.0,30.10,NNE,12,4.0,6.0,69,0.00,,,0.00,VWS V14.01,2013-01-20 06:27:00,
2013-01-20 01:30:00,61.2,51.0,30.10,NNE,12,4.0,6.0,69,0.00,,,0.00,VWS V14.01,2013-01-20 06:30:00,
2013-01-20 01:37:00,61.0,50.8,30.09,NE,42,3.0,6.0,69,0.00,,,0.00,VWS V14.01,2013-01-20 06:37:00,
2013-01-20 01:40:00,61.0,50.8,30.09,NE,42,3.0,6.0,69,0.00,,,0.00,VWS V14.01,2013-01-20 06:40:00,
2013-01-20 01:47:00,60.9,50.7,30.10,ENE,66,8.0,10.0,69,0.00,,,0.00,VWS V14.01,2013-01-20 06:47:00,
2013-01-20 01:50:00,60.9,50.7,30.10,ENE,66,8.0,10.0,69,0.00,,,0.00,VWS V14.01,2013-01-20 06:50:00,
2013-01-20 01:57:00,60.9,50.7,30.09,NE,47,6.0,9.0,69,0.00,,,0.00,VWS V14.01,2013-01-20 06:57:00,
2013-01-20 02:00:00,60.9,50.7,30.09,NE,47,6.0,9.0,69,0.00,,,0.00,VWS V14.01,2013-01-20 07:00:00,
2013-01-20 02:07:00,60.7,50.9,30.09,NNE,30,3.0,7.0,70,0.00,,,0.00,VWS V14.01,2013-01-20 07:07:00,
2013-01-20 02:10:00,60.7,50.9,30.09,NNE,30,3.0,7.0,70,0.00,,,0.00,VWS V14.01,2013-01-20 07:10:00,
2013-01-20 02:17:00,60.5,50.7,30.08,NNE,28,6.0,7.0,70,0.00,,,0.00,VWS V14.01,2013-01-20 07:17:00,
2013-01-20 02:20:00,60.5,50.7,30.08,NNE,28,6.0,7.0,70,0.00,,,0.00,VWS V14.01,2013-01-20 07:20:00,
2013-01-20 02:27:00,60.4,50.6,30.09,NNE,23,3.0,7.0,70,0.00,,,0.00,VWS V14.01,2013-01-20 07:27:00,
2013-01-20 02:30:00,60.4,50.6,30.09,NNE,23,3.0,7.0,70,0.00,,,0.00,VWS V14.01,2013-01-20 07:30:00,
2013-01-20 02:37:00,60.2,50.4,30.09,NNE,22,5.0,8.0,70,0.00,,,0.00,VWS V14.01,2013-01-20 07:37:00,
2013-01-20 02:40:00,60.2,50.4,30.09,NNE,22,5.0,8.0,70,0.00,,,0.00,VWS V14.01,2013-01-20 07:40:00,
2013-01-20 02:47:00,60.2,50.4,30.08,North,11,6.0,12.0,70,0.00,,,0.00,VWS V14.01,2013-01-20 07:47:00,
2013-01-20 02:50:00,60.2,50.4,30.08,North,11,6.0,12.0,70,0.00,,,0.00,VWS V14.01,2013-01-20 07:50:00,
2013-01-20 02:57:00,60.2,50.8,30.09,North,355,1.0,10.0,71,0.00,,,0.00,VWS V14.01,2013-01-20 07:57:00,
2013-01-20 03:00:00,60.2,50.8,30.09,North,355,1.0,10.0,71,0.00,,,0.00,VWS V14.01,2013-01-20 08:00:00,
2013-01-20 03:07:00,60.0,50.6,30.09,North,355,0.0,4.0,71,0.00,,,0.00,VWS V14.01,2013-01-20 08:07:00,
2013-01-20 03:10:00,60.0,50.6,30.09,North,355,0.0,4.0,71,0.00,,,0.00,VWS V14.01,2013-01-20 08:10:00,
2013-01-20 03:17:00,59.9,50.5,30.09,North,355,2.0,5.0,71,0.00,,,0.00,VWS V14.01,2013-01-20 08:17:00,
2013-01-20 03:20:00,59.9,50.5,30.09,North,355,2.0,5.0,71,0.00,,,0.00,VWS V14.01,2013-01-20 08:20:00,
2013-01-20 03:27:00,59.7,50.3,30.10,North,355,2.0,4.0,71,0.00,,,0.00,VWS V14.01,2013-01-20 08:27:00,
2013-01-20 03:30:00,59.7,50.3,30.10,North,355,2.0,4.0,71,0.00,,,0.00,VWS V14.01,2013-01-20 08:30:00,
2013-01-20 03:37:00,59.5,50.1,30.10,North,355,1.0,4.0,71,0.00,,,0.00,VWS V14.01,2013-01-20 08:37:00,
2013-01-20 03:40:00,59.5,50.1,30.10,North,355,1.0,4.0,71,0.00,,,0.00,VWS V14.01,2013-01-20 08:40:00,
2013-01-20 03:47:00,59.3,49.9,30.09,North,355,0.0,3.0,71,0.00,,,0.00,VWS V14.01,2013-01-20 08:47:00,
2013-01-20 03:50:00,59.3,49.9,30.09,North,355,0.0,3.0,71,0.00,,,0.00,VWS V14.01,2013-01-20 08:50:00,
2013-01-20 03:57:00,59.1,49.7,30.08,North,355,3.0,3.0,71,0.00,,,0.00,VWS V14.01,2013-01-20 08:57:00,
2013-01-20 04:00:00,59.1,49.7,30.08,North,355,3.0,3.0,71,0.00,,,0.00,VWS V14.01,2013-01-20 09:00:00,
2013-01-20 04:07:00,59.0,49.6,30.09,North,355,3.0,5.0,71,0.00,,,0.00,VWS V14.01,2013-01-20 09:07:00,
2013-01-20 04:10:00,59.0,49.6,30.09,North,355,3.0,5.0,71,0.00,,,0.00,VWS V14.01,2013-01-20 09:10:00,
2013-01-20 04:17:00,58.9,49.5,30.09,North,355,3.0,6.0,71,0.00,,,0.00,VWS V14.01,2013-01-20 09:17:00,
2013-01-20 04:20:00,58.9,49.5,30.09,North,355,3.0,6.0,71,0.00,,,0.00,VWS V14.01,2013-01-20 09:20:00,
2013-01-20 04:27:00,59.0,50.0,30.09,North,355,2.0,4.0,72,0.00,,,0.00,VWS V14.01,2013-01-20 09:27:00,
2013-01-20 04:30:00,59.0,50.0,30.09,North,355,2.0,4.0,72,0.00,,,0.00,VWS V14.01,2013-01-20 09:30:00,
2013-01-20 04:37:00,59.0,50.0,30.09,North,355,1.0,4.0,72,0.00,,,0.00,VWS V14.01,2013-01-20 09:37:00,
2013-01-20 04:40:00,59.0,50.0,30.09,North,355,1.0,4.0,72,0.00,,,0.00,VWS V14.01,2013-01-20 09:40:00,
2013-01-20 04:47:00,59.1,50.1,30.09,North,355,3.0,5.0,72,0.00,,,0.00,VWS V14.01,2013-01-20 09:47:00,
2013-01-20 04:50:00,59.1,50.1,30.09,North,355,3.0,5.0,72,0.00,,,0.00,VWS V14.01,2013-01-20 09:50:00,
2013-01-20 04:57:00,59.1,50.1,30.08,North,11,3.0,7.0,72,0.00,,,0.00,VWS V14.01,2013-01-20 09:57:00,
2013-01-20 05:00:00,59.1,50.1,30.08,North,11,3.0,7.0,72,0.00,,,0.00,VWS V14.01,2013-01-20 10:00:00,
2013-01-20 05:07:00,59.1,50.1,30.09,North,5,4.0,8.0,72,0.00,,,0.00,VWS V14.01,2013-01-20 10:07:00,
2013-01-20 05:10:00,59.1,50.1,30.09,North,5,4.0,8.0,72,0.00,,,0.00,VWS V14.01,2013-01-20 10:10:00,
2013-01-20 05:17:00,59.0,50.0,30.08,NNE,18,5.0,6.0,72,0.00,,,0.00,VWS V14.01,2013-01-20 10:17:00,
2013-01-20 05:20:00,59.0,50.0,30.08,NNE,18,5.0,6.0,72,0.00,,,0.00,VWS V14.01,2013-01-20 10:20:00,
2013-01-20 05:27:00,59.1,50.1,30.08,NNE,13,2.0,8.0,72,0.00,,,0.00,VWS V14.01,2013-01-20 10:27:00,
2013-01-20 05:30:00,59.1,50.1,30.08,NNE,13,2.0,8.0,72,0.00,,,0.00,VWS V14.01,2013-01-20 10:30:00,
2013-01-20 05:37:00,59.1,50.1,30.09,NE,35,3.0,7.0,72,0.00,,,0.00,VWS V14.01,2013-01-20 10:37:00,
2013-01-20 05:40:00,59.1,50.1,30.09,NE,35,3.0,7.0,72,0.00,,,0.00,VWS V14.01,2013-01-20 10:40:00,
2013-01-20 05:47:00,59.1,50.5,30.09,NNE,19,0.0,7.0,73,0.00,,,0.00,VWS V14.01,2013-01-20 10:47:00,
2013-01-20 05:50:00,59.1,50.5,30.09,NNE,19,0.0,7.0,73,0.00,,,0.00,VWS V14.01,2013-01-20 10:50:00,
2013-01-20 05:57:00,59.1,50.5,30.09,North,360,3.0,6.0,73,0.00,,,0.00,VWS V14.01,2013-01-20 10:57:00,
2013-01-20 06:00:00,59.1,50.5,30.09,North,360,3.0,6.0,73,0.00,,,0.00,VWS V14.01,2013-01-20 11:00:00,
2013-01-20 06:07:00,59.0,50.4,30.09,NE,39,1.0,6.0,73,0.00,,,0.00,VWS V14.01,2013-01-20 11:07:00,
2013-01-20 06:10:00,59.0,50.4,30.09,NE,39,1.0,6.0,73,0.00,,,0.00,VWS V14.01,2013-01-20 11:10:00,
2013-01-20 06:17:00,59.1,50.5,30.09,NNE,17,3.0,6.0,73,0.00,,,0.00,VWS V14.01,2013-01-20 11:17:00,
2013-01-20 06:20:00,59.1,50.5,30.09,NNE,17,3.0,6.0,73,0.00,,,0.00,VWS V14.01,2013-01-20 11:20:00,
2013-01-20 06:27:00,59.1,50.5,30.10,North,355,6.0,8.0,73,0.00,,,0.00,VWS V14.01,2013-01-20 11:27:00,
2013-01-20 06:30:00,59.1,50.5,30.10,North,355,6.0,8.0,73,0.00,,,0.00,VWS V14.01,2013-01-20 11:30:00,
2013-01-20 06:38:00,58.9,50.3,30.10,NW,324,6.0,7.0,73,0.00,,,0.00,VWS V14.01,2013-01-20 11:38:00,
2013-01-20 06:40:00,58.9,50.3,30.10,NW,324,6.0,7.0,73,0.00,,,0.00,VWS V14.01,2013-01-20 11:40:00,
2013-01-20 06:47:00,58.7,50.1,30.11,North,355,5.0,7.0,73,0.00,,,0.00,VWS V14.01,2013-01-20 11:47:00,
2013-01-20 06:50:00,58.7,50.1,30.11,North,355,5.0,7.0,73,0.00,,,0.00,VWS V14.01,2013-01-20 11:50:00,
2013-01-20 06:57:00,58.7,50.1,30.11,NW,326,4.0,8.0,73,0.00,,,0.00,VWS V14.01,2013-01-20 11:57:00,
2013-01-20 07:00:00,58.7,50.1,30.11,NW,326,4.0,8.0,73,0.00,,,0.00,VWS V14.01,2013-01-20 12:00:00,
2013-01-20 07:08:00,58.6,50.0,30.11,NNW,348,2.0,7.0,73,0.00,,,0.00,VWS V14.01,2013-01-20 12:08:00,
2013-01-20 07:10:00,58.6,50.0,30.11,NNW,348,2.0,7.0,73,0.00,,,0.00,VWS V14.01,2013-01-20 12:10:00,
2013-01-20 07:18:00,58.6,50.0,30.11,North,360,0.0,7.0,73,0.00,,,0.00,VWS V14.01,2013-01-20 12:18:00,
2013-01-20 07:20:00,58.6,50.0,30.11,North,360,0.0,7.0,73,0.00,,,0.00,VWS V14.01,2013-01-20 12:20:00,
2013-01-20 07:27:00,58.7,50.1,30.11,NNW,344,6.0,7.0,73,0.00,,,0.00,VWS V14.01,2013-01-20 12:27:00,
2013-01-20 07:30:00,58.7,50.1,30.11,NNW,344,6.0,7.0,73,0.00,,,0.00,VWS V14.01,2013-01-20 12:30:00,
2013-01-20 07:37:00,58.8,50.2,30.12,North,5,2.0,8.0,73,0.00,,,0.00,VWS V14.01,2013-01-20 12:37:00,
2013-01-20 07:40:00,58.8,50.2,30.12,North,5,2.0,8.0,73,0.00,,,0.00,VWS V14.01,2013-01-20 12:40:00,
2013-01-20 07:47:00,59.1,50.5,30.12,NNW,340,4.0,8.0,73,0.00,,,0.00,VWS V14.01,2013-01-20 12:47:00,
2013-01-20 07:50:00,59.1,50.5,30.12,NNW,340,4.0,8.0,73,0.00,,,0.00,VWS V14.01,2013-01-20 12:50:00,
2013-01-20 07:57:00,59.3,50.7,30.12,North,360,3.0,6.0,73,0.00,,,0.00,VWS V14.01,2013-01-20 12:57:00,
2013-01-20 08:00:00,59.3,50.7,30.12,North,360,3.0,6.0,73,0.00,,,0.00,VWS V14.01,2013-01-20 13:00:00,
2013-01-20 08:07:00,59.5,50.8,30.12,North,355,3.0,6.0,73,0.00,,,0.00,VWS V14.01,2013-01-20 13:07:00,
2013-01-20 08:10:00,59.5,50.8,30.12,North,355,3.0,6.0,73,0.00,,,0.00,VWS V14.01,2013-01-20 13:10:00,
2013-01-20 08:17:00,59.9,51.6,30.13,North,11,4.0,8.0,74,0.00,,,0.00,VWS V14.01,2013-01-20 13:17:00,
2013-01-20 08:20:00,59.9,51.6,30.13,North,11,4.0,8.0,74,0.00,,,0.00,VWS V14.01,2013-01-20 13:20:00,
2013-01-20 08:27:00,60.2,51.5,30.12,NNW,344,1.0,6.0,73,0.00,,,0.00,VWS V14.01,2013-01-20 13:27:00,
2013-01-20 08:30:00,60.2,51.5,30.12,NNW,344,1.0,6.0,73,0.00,,,0.00,VWS V14.01,2013-01-20 13:30:00,
2013-01-20 08:38:00,60.6,51.9,30.13,NNW,331,2.0,7.0,73,0.00,,,0.00,VWS V14.01,2013-01-20 13:38:00,
2013-01-20 08:40:00,60.6,51.9,30.13,NNW,331,2.0,7.0,73,0.00,,,0.00,VWS V14.01,2013-01-20 13:40:00,
2013-01-20 08:48:00,60.9,52.2,30.13,NNE,19,3.0,8.0,73,0.00,,,0.00,VWS V14.01,2013-01-20 13:48:00,
2013-01-20 08:50:00,60.9,52.2,30.13,NNE,19,3.0,8.0,73,0.00,,,0.00,VWS V14.01,2013-01-20 13:50:00,
2013-01-20 08:57:00,61.2,52.5,30.14,North,9,4.0,9.0,73,0.00,,,0.00,VWS V14.01,2013-01-20 13:57:00,
2013-01-20 09:00:00,61.2,52.5,30.14,North,9,4.0,9.0,73,0.00,,,0.00,VWS V14.01,2013-01-20 14:00:00,
2013-01-20 09:07:00,61.5,52.8,30.13,NE,42,0.0,7.0,73,0.00,,,0.00,VWS V14.01,2013-01-20 14:07:00,
2013-01-20 09:10:00,61.5,52.8,30.13,NE,42,0.0,7.0,73,0.00,,,0.00,VWS V14.01,2013-01-20 14:10:00,
2013-01-20 09:17:00,61.8,52.7,30.14,NE,42,2.0,8.0,72,0.00,,,0.00,VWS V14.01,2013-01-20 14:17:00,
2013-01-20 09:20:00,61.8,52.7,30.14,NE,42,2.0,8.0,72,0.00,,,0.00,VWS V14.01,2013-01-20 14:20:00,
2013-01-20 09:27:00,62.0,52.9,30.13,NE,55,0.0,8.0,72,0.00,,,0.00,VWS V14.01,2013-01-20 14:27:00,
2013-01-20 09:30:00,62.0,52.9,30.13,NE,55,0.0,8.0,72,0.00,,,0.00,VWS V14.01,2013-01-20 14:30:00,
2013-01-20 09:37:00,62.4,53.3,30.15,NNE,26,5.0,10.0,72,0.00,,,0.00,VWS V14.01,2013-01-20 14:37:00,
2013-01-20 09:40:00,62.4,53.3,30.15,NNE,26,5.0,10.0,72,0.00,,,0.00,VWS V14.01,2013-01-20 14:40:00,
2013-01-20 09:47:00,62.6,53.1,30.14,NNE,26,7.0,10.0,71,0.00,,,0.00,VWS V14.01,2013-01-20 14:47:00,
2013-01-20 09:50:00,62.6,53.1,30.14,NNE,26,7.0,10.0,71,0.00,,,0.00,VWS V14.01,2013-01-20 14:50:00,
2013-01-20 09:57:00,63.1,53.6,30.14,NE,34,6.0,9.0,71,0.00,,,0.00,VWS V14.01,2013-01-20 14:57:00,
2013-01-20 10:00:00,63.1,53.6,30.14,NE,34,6.0,9.0,71,0.00,,,0.00,VWS V14.01,2013-01-20 15:00:00,
2013-01-20 10:07:00,63.4,53.5,30.14,North,349,5.0,9.0,70,0.00,,,0.00,VWS V14.01,2013-01-20 15:07:00,
2013-01-20 10:10:00,63.4,53.5,30.14,North,349,5.0,9.0,70,0.00,,,0.00,VWS V14.01,2013-01-20 15:10:00,
2013-01-20 10:17:00,63.2,52.9,30.14,NNE,12,8.0,10.0,69,0.00,,,0.00,VWS V14.01,2013-01-20 15:17:00,
2013-01-20 10:20:00,63.2,52.9,30.14,NNE,12,8.0,10.0,69,0.00,,,0.00,VWS V14.01,2013-01-20 15:20:00,
2013-01-20 10:27:00,63.6,53.3,30.14,NE,36,2.0,10.0,69,0.00,,,0.00,VWS V14.01,2013-01-20 15:27:00,
2013-01-20 10:30:00,63.6,53.3,30.14,NE,36,2.0,10.0,69,0.00,,,0.00,VWS V14.01,2013-01-20 15:30:00,
2013-01-20 10:37:00,64.9,54.1,30.14,North,355,7.0,9.0,68,0.00,,,0.00,VWS V14.01,2013-01-20 15:37:00,
2013-01-20 10:40:00,64.9,54.1,30.14,North,355,7.0,9.0,68,0.00,,,0.00,VWS V14.01,2013-01-20 15:40:00,
2013-01-20 10:47:00,65.5,54.3,30.14,North,349,9.0,11.0,67,0.00,,,0.00,VWS V14.01,2013-01-20 15:47:00,
2013-01-20 10:50:00,65.5,54.3,30.14,North,349,9.0,11.0,67,0.00,,,0.00,VWS V14.01,2013-01-20 15:50:00,
2013-01-20 10:57:00,65.3,53.7,30.13,NE,39,5.0,12.0,66,0.00,,,0.00,VWS V14.01,2013-01-20 15:57:00,
2013-01-20 11:00:00,65.3,53.7,30.13,NE,39,5.0,12.0,66,0.00,,,0.00,VWS V14.01,2013-01-20 16:00:00,
2013-01-20 11:07:00,65.8,54.1,30.13,NNE,15,4.0,11.0,66,0.00,,,0.00,VWS V14.01,2013-01-20 16:07:00,
2013-01-20 11:10:00,65.8,54.1,30.13,NNE,15,4.0,11.0,66,0.00,,,0.00,VWS V14.01,2013-01-20 16:10:00,
2013-01-20 11:17:00,66.3,54.2,30.13,NE,49,2.0,9.0,65,0.00,,,0.00,VWS V14.01,2013-01-20 16:17:00,
2013-01-20 11:20:00,66.3,54.2,30.13,NE,49,2.0,9.0,65,0.00,,,0.00,VWS V14.01,2013-01-20 16:20:00,
2013-01-20 11:27:00,66.9,54.8,30.12,NE,38,6.0,7.0,65,0.00,,,0.00,VWS V14.01,2013-01-20 16:27:00,
2013-01-20 11:30:00,66.9,54.8,30.12,NE,38,6.0,7.0,65,0.00,,,0.00,VWS V14.01,2013-01-20 16:30:00,
2013-01-20 11:37:00,67.3,54.7,30.12,ENE,67,4.0,9.0,64,0.00,,,0.00,VWS V14.01,2013-01-20 16:37:00,
2013-01-20 11:40:00,67.3,54.7,30.12,ENE,67,4.0,9.0,64,0.00,,,0.00,VWS V14.01,2013-01-20 16:40:00,
2013-01-20 11:47:00,67.7,54.7,30.11,NE,41,3.0,7.0,63,0.00,,,0.00,VWS V14.01,2013-01-20 16:47:00,
2013-01-20 11:50:00,67.7,54.7,30.11,NE,41,3.0,7.0,63,0.00,,,0.00,VWS V14.01,2013-01-20 16:50:00,
2013-01-20 11:57:00,68.0,55.0,30.11,NE,34,3.0,9.0,63,0.00,,,0.00,VWS V14.01,2013-01-20 16:57:00,
2013-01-20 12:00:00,68.0,55.0,30.11,NE,34,3.0,9.0,63,0.00,,,0.00,VWS V14.01,2013-01-20 17:00:00,
2013-01-20 12:07:00,67.6,54.6,30.10,NNE,28,3.0,9.0,63,0.00,,,0.00,VWS V14.01,2013-01-20 17:07:00,
2013-01-20 12:10:00,67.6,54.6,30.10,NNE,28,3.0,9.0,63,0.00,,,0.00,VWS V14.01,2013-01-20 17:10:00,
2013-01-20 12:17:00,68.1,55.0,30.10,NNW,335,9.0,10.0,63,0.00,,,0.00,VWS V14.01,2013-01-20 17:17:00,
2013-01-20 12:20:00,68.1,55.0,30.10,NNW,335,9.0,10.0,63,0.00,,,0.00,VWS V14.01,2013-01-20 17:20:00,
2013-01-20 12:27:00,68.7,55.2,30.09,NNE,28,7.0,10.0,62,0.00,,,0.00,VWS V14.01,2013-01-20 17:27:00,
2013-01-20 12:30:00,68.7,55.2,30.09,NNE,28,7.0,10.0,62,0.00,,,0.00,VWS V14.01,2013-01-20 17:30:00,
2013-01-20 12:37:00,69.5,55.5,30.09,NE,39,7.0,9.0,61,0.00,,,0.00,VWS V14.01,2013-01-20 17:37:00,
2013-01-20 12:40:00,69.5,55.5,30.09,NE,39,7.0,9.0,61,0.00,,,0.00,VWS V14.01,2013-01-20 17:40:00,
2013-01-20 12:47:00,69.6,55.1,30.08,NE,51,7.0,13.0,60,0.00,,,0.00,VWS V14.01,2013-01-20 17:47:00,
2013-01-20 12:50:00,69.6,55.1,30.08,NE,51,7.0,13.0,60,0.00,,,0.00,VWS V14.01,2013-01-20 17:50:00,
2013-01-20 12:57:00,71.2,56.2,30.07,NE,46,3.0,13.0,59,0.00,,,0.00,VWS V14.01,2013-01-20 17:57:00,
2013-01-20 13:00:00,71.2,56.2,30.07,NE,46,3.0,13.0,59,0.00,,,0.00,VWS V14.01,2013-01-20 18:00:00,
2013-01-20 13:07:00,70.9,55.4,30.07,East,81,4.0,11.0,58,0.00,,,0.00,VWS V14.01,2013-01-20 18:07:00,
2013-01-20 13:10:00,70.9,55.4,30.07,East,81,4.0,11.0,58,0.00,,,0.00,VWS V14.01,2013-01-20 18:10:00,
2013-01-20 13:17:00,73.3,56.7,30.06,NE,50,8.0,11.0,56,0.00,,,0.00,VWS V14.01,2013-01-20 18:17:00,
2013-01-20 13:20:00,73.3,56.7,30.06,NE,50,8.0,11.0,56,0.00,,,0.00,VWS V14.01,2013-01-20 18:20:00,
2013-01-20 13:27:00,72.0,55.5,30.05,East,96,8.0,11.0,56,0.00,,,0.00,VWS V14.01,2013-01-20 18:27:00,
2013-01-20 13:30:00,72.0,55.5,30.05,East,96,8.0,11.0,56,0.00,,,0.00,VWS V14.01,2013-01-20 18:30:00,
2013-01-20 13:37:00,71.9,55.4,30.05,East,91,7.0,10.0,56,0.00,,,0.00,VWS V14.01,2013-01-20 18:37:00,
2013-01-20 13:40:00,71.9,55.4,30.05,East,91,7.0,10.0,56,0.00,,,0.00,VWS V14.01,2013-01-20 18:40:00,
2013-01-20 13:48:00,72.7,55.6,30.04,NNE,29,6.0,12.0,55,0.00,,,0.00,VWS V14.01,2013-01-20 18:48:00,
2013-01-20 13:50:00,72.7,55.6,30.04,NNE,29,6.0,12.0,55,0.00,,,0.00,VWS V14.01,2013-01-20 18:50:00,
2013-01-20 13:57:00,73.0,55.9,30.04,NNE,25,3.0,13.0,55,0.00,,,0.00,VWS V14.01,2013-01-20 18:57:00,
2013-01-20 14:00:00,73.0,55.9,30.04,NNE,25,3.0,13.0,55,0.00,,,0.00,VWS V14.01,2013-01-20 19:00:00,
2013-01-20 14:07:00,73.6,56.5,30.04,NE,38,7.0,12.0,55,0.00,,,0.00,VWS V14.01,2013-01-20 19:07:00,
2013-01-20 14:10:00,73.6,56.5,30.04,NE,38,7.0,12.0,55,0.00,,,0.00,VWS V14.01,2013-01-20 19:10:00,
2013-01-20 14:17:00,74.1,56.9,30.03,NNW,341,5.0,12.0,55,0.00,,,0.00,VWS V14.01,2013-01-20 19:17:00,
2013-01-20 14:20:00,74.1,56.9,30.03,NNW,341,5.0,12.0,55,0.00,,,0.00,VWS V14.01,2013-01-20 19:20:00,
2013-01-20 14:27:00,73.6,56.5,30.03,East,89,7.0,15.0,55,0.00,,,0.00,VWS V14.01,2013-01-20 19:27:00,
2013-01-20 14:30:00,73.6,56.5,30.03,East,89,7.0,15.0,55,0.00,,,0.00,VWS V14.01,2013-01-20 19:30:00,
2013-01-20 14:37:00,73.5,56.4,30.03,ENE,65,7.0,13.0,55,0.00,,,0.00,VWS V14.01,2013-01-20 19:37:00,
2013-01-20 14:40:00,73.5,56.4,30.03,ENE,65,7.0,13.0,55,0.00,,,0.00,VWS V14.01,2013-01-20 19:40:00,
2013-01-20 14:47:00,72.9,55.8,30.02,ENE,74,5.0,10.0,55,0.00,,,0.00,VWS V14.01,2013-01-20 19:47:00,
2013-01-20 14:50:00,72.9,55.8,30.02,ENE,74,5.0,10.0,55,0.00,,,0.00,VWS V14.01,2013-01-20 19:50:00,
2013-01-20 14:57:00,73.5,56.4,30.02,NE,51,6.0,13.0,55,0.00,,,0.00,VWS V14.01,2013-01-20 19:57:00,
2013-01-20 15:00:00,73.5,56.4,30.02,NE,51,6.0,13.0,55,0.00,,,0.00,VWS V14.01,2013-01-20 20:00:00,
2013-01-20 15:07:00,73.4,56.3,30.02,East,80,1.0,11.0,55,0.00,,,0.00,VWS V14.01,2013-01-20 20:07:00,
2013-01-20 15:10:00,73.4,56.3,30.02,East,80,1.0,11.0,55,0.00,,,0.00,VWS V14.01,2013-01-20 20:10:00,
2013-01-20 15:17:00,73.5,56.4,30.01,East,85,4.0,13.0,55,0.00,,,0.00,VWS V14.01,2013-01-20 20:17:00,
2013-01-20 15:20:00,73.5,56.4,30.01,East,85,4.0,13.0,55,0.00,,,0.00,VWS V14.01,2013-01-20 20:20:00,
2013-01-20 15:27:00,73.3,56.2,30.02,ESE,115,6.0,11.0,55,0.00,,,0.00,VWS V14.01,2013-01-20 20:27:00,
2013-01-20 15:30:00,73.3,56.2,30.02,ESE,115,6.0,11.0,55,0.00,,,0.00,VWS V14.01,2013-01-20 20:30:00,
2013-01-20 15:37:00,73.3,56.2,30.02,ENE,59,6.0,8.0,55,0.00,,,0.00,VWS V14.01,2013-01-20 20:37:00,
2013-01-20 15:40:00,73.3,56.2,30.02,ENE,59,6.0,8.0,55,0.00,,,0.00,VWS V14.01,2013-01-20 20:40:00,
2013-01-20 15:47:00,74.7,57.0,30.02,ESE,118,6.0,11.0,54,0.00,,,0.00,VWS V14.01,2013-01-20 20:47:00,
2013-01-20 15:50:00,74.7,57.0,30.02,ESE,118,6.0,11.0,54,0.00,,,0.00,VWS V14.01,2013-01-20 20:50:00,
2013-01-20 15:57:00,74.2,56.5,30.02,East,86,4.0,12.0,54,0.00,,,0.00,VWS V14.01,2013-01-20 20:57:00,
2013-01-20 16:00:00,74.2,56.5,30.02,East,86,4.0,12.0,54,0.00,,,0.00,VWS V14.01,2013-01-20 21:00:00,
2013-01-20 16:07:00,73.6,56.5,30.02,ESE,102,7.0,12.0,55,0.00,,,0.00,VWS V14.01,2013-01-20 21:07:00,
2013-01-20 16:10:00,73.6,56.5,30.02,ESE,102,7.0,12.0,55,0.00,,,0.00,VWS V14.01,2013-01-20 21:10:00,
2013-01-20 16:17:00,72.8,55.7,30.02,East,99,5.0,11.0,55,0.00,,,0.00,VWS V14.01,2013-01-20 21:17:00,
2013-01-20 16:20:00,72.8,55.7,30.02,East,99,5.0,11.0,55,0.00,,,0.00,VWS V14.01,2013-01-20 21:20:00,
2013-01-20 16:27:00,72.4,55.3,30.02,ENE,77,7.0,10.0,55,0.00,,,0.00,VWS V14.01,2013-01-20 21:27:00,
2013-01-20 16:30:00,72.4,55.3,30.02,ENE,77,7.0,10.0,55,0.00,,,0.00,VWS V14.01,2013-01-20 21:30:00,
2013-01-20 16:37:00,71.8,54.8,30.02,East,97,6.0,8.0,55,0.00,,,0.00,VWS V14.01,2013-01-20 21:37:00,
2013-01-20 16:40:00,71.8,54.8,30.02,East,97,6.0,8.0,55,0.00,,,0.00,VWS V14.01,2013-01-20 21:40:00,
2013-01-20 16:47:00,71.5,55.0,30.02,ENE,72,1.0,8.0,56,0.00,,,0.00,VWS V14.01,2013-01-20 21:47:00,
2013-01-20 16:50:00,71.5,55.0,30.02,ENE,72,1.0,8.0,56,0.00,,,0.00,VWS V14.01,2013-01-20 21:50:00,
2013-01-20 16:57:00,71.5,55.0,30.02,ENE,66,3.0,7.0,56,0.00,,,0.00,VWS V14.01,2013-01-20 21:57:00,
2013-01-20 17:00:00,71.5,55.0,30.02,ENE,66,3.0,7.0,56,0.00,,,0.00,VWS V14.01,2013-01-20 22:00:00,
2013-01-20 17:07:00,71.3,54.8,30.02,ENE,65,0.0,7.0,56,0.00,,,0.00,VWS V14.01,2013-01-20 22:07:00,
2013-01-20 17:10:00,71.3,54.8,30.02,ENE,65,0.0,7.0,56,0.00,,,0.00,VWS V14.01,2013-01-20 22:10:00,
2013-01-20 17:17:00,71.0,55.0,30.02,ENE,65,4.0,4.0,57,0.00,,,0.00,VWS V14.01,2013-01-20 22:17:00,
2013-01-20 17:20:00,71.0,55.0,30.02,ENE,65,4.0,4.0,57,0.00,,,0.00,VWS V14.01,2013-01-20 22:20:00,
2013-01-20 17:27:00,70.8,54.8,30.03,ENE,65,2.0,5.0,57,0.00,,,0.00,VWS V14.01,2013-01-20 22:27:00,
2013-01-20 17:30:00,70.8,54.8,30.03,ENE,65,2.0,5.0,57,0.00,,,0.00,VWS V14.01,2013-01-20 22:30:00,
2013-01-20 17:37:00,70.6,54.6,30.03,ENE,65,1.0,5.0,57,0.00,,,0.00,VWS V14.01,2013-01-20 22:37:00,
2013-01-20 17:40:00,70.6,54.6,30.03,ENE,65,1.0,5.0,57,0.00,,,0.00,VWS V14.01,2013-01-20 22:40:00,
2013-01-20 17:47:00,70.3,54.8,30.03,ENE,65,2.0,5.0,58,0.00,,,0.00,VWS V14.01,2013-01-20 22:47:00,
2013-01-20 17:50:00,70.3,54.8,30.03,ENE,65,2.0,5.0,58,0.00,,,0.00,VWS V14.01,2013-01-20 22:50:00,
2013-01-20 17:57:00,69.8,54.4,30.03,ENE,65,1.0,5.0,58,0.00,,,0.00,VWS V14.01,2013-01-20 22:57:00,
2013-01-20 18:00:00,69.8,54.4,30.03,ENE,65,1.0,5.0,58,0.00,,,0.00,VWS V14.01,2013-01-20 23:00:00,
2013-01-20 18:07:00,69.4,54.5,30.03,NE,51,8.0,11.0,59,0.00,,,0.00,VWS V14.01,2013-01-20 23:07:00,
2013-01-20 18:10:00,69.4,54.5,30.03,NE,51,8.0,11.0,59,0.00,,,0.00,VWS V14.01,2013-01-20 23:10:00,
2013-01-20 18:18:00,69.0,54.5,30.04,NE,52,8.0,12.0,60,0.00,,,0.00,VWS V14.01,2013-01-20 23:18:00,
2013-01-20 18:20:00,69.0,54.5,30.04,NE,52,8.0,12.0,60,0.00,,,0.00,VWS V14.01,2013-01-20 23:20:00,
2013-01-20 18:27:00,68.3,54.3,30.04,East,94,5.0,11.0,61,0.00,,,0.00,VWS V14.01,2013-01-20 23:27:00,
2013-01-20 18:30:00,68.3,54.3,30.04,East,94,5.0,11.0,61,0.00,,,0.00,VWS V14.01,2013-01-20 23:30:00,
2013-01-20 18:37:00,67.8,53.9,30.04,East,88,6.0,12.0,61,0.00,,,0.00,VWS V14.01,2013-01-20 23:37:00,
2013-01-20 18:40:00,67.8,53.9,30.04,East,88,6.0,12.0,61,0.00,,,0.00,VWS V14.01,2013-01-20 23:40:00,
2013-01-20 18:47:00,67.3,53.8,30.05,East,101,5.0,7.0,62,0.00,,,0.00,VWS V14.01,2013-01-20 23:47:00,
2013-01-20 18:50:00,67.3,53.8,30.05,East,101,5.0,7.0,62,0.00,,,0.00,VWS V14.01,2013-01-20 23:50:00,
2013-01-20 18:57:00,67.1,53.7,30.05,East,90,6.0,12.0,62,0.00,,,0.00,VWS V14.01,2013-01-20 23:57:00,
2013-01-20 19:00:00,67.1,53.7,30.05,East,90,6.0,12.0,62,0.00,,,0.00,VWS V14.01,2013-01-21 00:00:00,
2013-01-20 19:07:00,66.8,53.4,30.05,East,90,6.0,11.0,62,0.00,,,0.00,VWS V14.01,2013-01-21 00:07:00,
2013-01-20 19:10:00,66.8,53.4,30.05,East,90,6.0,11.0,62,0.00,,,0.00,VWS V14.01,2013-01-21 00:10:00,
2013-01-20 19:17:00,66.4,53.0,30.05,ENE,78,3.0,8.0,62,0.00,,,0.00,VWS V14.01,2013-01-21 00:17:00,
2013-01-20 19:20:00,66.4,53.0,30.05,ENE,78,3.0,8.0,62,0.00,,,0.00,VWS V14.01,2013-01-21 00:20:00,
2013-01-20 19:27:00,66.1,53.2,30.05,East,84,3.0,8.0,63,0.00,,,0.00,VWS V14.01,2013-01-21 00:27:00,
2013-01-20 19:30:00,66.1,53.2,30.05,East,84,3.0,8.0,63,0.00,,,0.00,VWS V14.01,2013-01-21 00:30:00,
2013-01-20 19:37:00,65.8,52.9,30.04,East,94,5.0,7.0,63,0.00,,,0.00,VWS V14.01,2013-01-21 00:37:00,
2013-01-20 19:40:00,65.8,52.9,30.04,East,94,5.0,7.0,63,0.00,,,0.00,VWS V14.01,2013-01-21 00:40:00,
2013-01-20 19:50:00,65.2,52.7,30.05,ENE,65,5.0,7.0,64,0.00,,,0.00,VWS V14.01,2013-01-21 00:50:00,
2013-01-20 19:57:00,64.8,52.3,30.05,ENE,67,3.0,7.0,64,0.00,,,0.00,VWS V14.01,2013-01-21 00:57:00,
2013-01-20 20:00:00,64.8,52.3,30.05,ENE,67,3.0,7.0,64,0.00,,,0.00,VWS V14.01,2013-01-21 01:00:00,
2013-01-20 20:07:00,64.5,52.5,30.05,ENE,63,4.0,7.0,65,0.00,,,0.00,VWS V14.01,2013-01-21 01:07:00,
2013-01-20 20:10:00,64.5,52.5,30.05,ENE,63,4.0,7.0,65,0.00,,,0.00,VWS V14.01,2013-01-21 01:10:00,
2013-01-20 20:17:00,64.3,52.3,30.06,ENE,74,2.0,6.0,65,0.00,,,0.00,VWS V14.01,2013-01-21 01:17:00,
2013-01-20 20:20:00,64.3,52.3,30.06,ENE,74,2.0,6.0,65,0.00,,,0.00,VWS V14.01,2013-01-21 01:20:00,
2013-01-20 20:28:00,63.9,51.9,30.05,ENE,71,4.0,5.0,65,0.00,,,0.00,VWS V14.01,2013-01-21 01:28:00,
2013-01-20 20:30:00,63.9,51.9,30.05,ENE,71,4.0,5.0,65,0.00,,,0.00,VWS V14.01,2013-01-21 01:30:00,
2013-01-20 20:37:00,63.3,51.8,30.06,ENE,63,3.0,6.0,66,0.00,,,0.00,VWS V14.01,2013-01-21 01:37:00,
2013-01-20 20:40:00,63.3,51.8,30.06,ENE,63,3.0,6.0,66,0.00,,,0.00,VWS V14.01,2013-01-21 01:40:00,
2013-01-20 20:47:00,63.0,51.5,30.06,ENE,65,1.0,6.0,66,0.00,,,0.00,VWS V14.01,2013-01-21 01:47:00,
2013-01-20 20:50:00,63.0,51.5,30.06,ENE,65,1.0,6.0,66,0.00,,,0.00,VWS V14.01,2013-01-21 01:50:00,
2013-01-20 20:57:00,62.9,51.8,30.07,NNE,31,5.0,8.0,67,0.00,,,0.00,VWS V14.01,2013-01-21 01:57:00,
2013-01-20 21:00:00,62.9,51.8,30.07,NNE,31,5.0,8.0,67,0.00,,,0.00,VWS V14.01,2013-01-21 02:00:00,
2013-01-20 21:07:00,62.8,51.7,30.07,East,79,5.0,8.0,67,0.00,,,0.00,VWS V14.01,2013-01-21 02:07:00,
2013-01-20 21:10:00,62.8,51.7,30.07,East,79,5.0,8.0,67,0.00,,,0.00,VWS V14.01,2013-01-21 02:10:00,
2013-01-20 21:17:00,62.8,51.7,30.08,ENE,69,2.0,7.0,67,0.00,,,0.00,VWS V14.01,2013-01-21 02:17:00,
2013-01-20 21:20:00,62.8,51.7,30.08,ENE,69,2.0,7.0,67,0.00,,,0.00,VWS V14.01,2013-01-21 02:20:00,
2013-01-20 21:27:00,62.4,50.9,30.07,NE,54,6.0,6.0,66,0.00,,,0.00,VWS V14.01,2013-01-21 02:27:00,
2013-01-20 21:30:00,62.4,50.9,30.07,NE,54,6.0,6.0,66,0.00,,,0.00,VWS V14.01,2013-01-21 02:30:00,
2013-01-20 21:37:00,61.9,50.4,30.07,NE,55,2.0,6.0,66,0.00,,,0.00,VWS V14.01,2013-01-21 02:37:00,
2013-01-20 21:40:00,61.9,50.4,30.07,NE,55,2.0,6.0,66,0.00,,,0.00,VWS V14.01,2013-01-21 02:40:00,
2013-01-20 21:47:00,61.8,50.3,30.07,NE,45,3.0,7.0,66,0.00,,,0.00,VWS V14.01,2013-01-21 02:47:00,
2013-01-20 21:50:00,61.8,50.3,30.07,NE,45,3.0,7.0,66,0.00,,,0.00,VWS V14.01,2013-01-21 02:50:00,
2013-01-20 21:57:00,61.6,49.7,30.07,NE,55,4.0,7.0,65,0.00,,,0.00,VWS V14.01,2013-01-21 02:57:00,
2013-01-20 22:00:00,61.6,49.7,30.07,NE,55,4.0,7.0,65,0.00,,,0.00,VWS V14.01,2013-01-21 03:00:00,
2013-01-20 22:07:00,61.3,49.5,30.07,ENE,60,2.0,6.0,65,0.00,,,0.00,VWS V14.01,2013-01-21 03:07:00,
2013-01-20 22:10:00,61.3,49.5,30.07,ENE,60,2.0,6.0,65,0.00,,,0.00,VWS V14.01,2013-01-21 03:10:00,
2013-01-20 22:17:00,61.5,49.6,30.07,ENE,61,3.0,6.0,65,0.00,,,0.00,VWS V14.01,2013-01-21 03:17:00,
2013-01-20 22:20:00,61.5,49.6,30.07,ENE,61,3.0,6.0,65,0.00,,,0.00,VWS V14.01,2013-01-21 03:20:00,
2013-01-20 22:27:00,61.6,49.7,30.07,ENE,62,3.0,7.0,65,0.00,,,0.00,VWS V14.01,2013-01-21 03:27:00,
2013-01-20 22:30:00,61.6,49.7,30.07,ENE,62,3.0,7.0,65,0.00,,,0.00,VWS V14.01,2013-01-21 03:30:00,
2013-01-20 22:38:00,61.9,49.6,30.08,East,80,4.0,6.0,64,0.00,,,0.00,VWS V14.01,2013-01-21 03:38:00,
2013-01-20 22:40:00,61.9,49.6,30.08,East,80,4.0,6.0,64,0.00,,,0.00,VWS V14.01,2013-01-21 03:40:00,
2013-01-20 22:47:00,62.1,49.4,30.07,ENE,60,3.0,6.0,63,0.00,,,0.00,VWS V14.01,2013-01-21 03:47:00,
2013-01-20 22:50:00,62.1,49.4,30.07,ENE,60,3.0,6.0,63,0.00,,,0.00,VWS V14.01,2013-01-21 03:50:00,
2013-01-20 22:57:00,62.2,49.0,30.07,ENE,69,3.0,7.0,62,0.00,,,0.00,VWS V14.01,2013-01-21 03:57:00,
2013-01-20 23:00:00,62.2,49.0,30.07,ENE,69,3.0,7.0,62,0.00,,,0.00,VWS V14.01,2013-01-21 04:00:00,
2013-01-20 23:07:00,62.2,48.6,30.07,ENE,68,4.0,6.0,61,0.00,,,0.00,VWS V14.01,2013-01-21 04:07:00,
2013-01-20 23:10:00,62.2,48.6,30.07,ENE,68,4.0,6.0,61,0.00,,,0.00,VWS V14.01,2013-01-21 04:10:00,
2013-01-20 23:17:00,62.3,48.7,30.07,NE,56,4.0,7.0,61,0.00,,,0.00,VWS V14.01,2013-01-21 04:17:00,
2013-01-20 23:20:00,62.3,48.7,30.07,NE,56,4.0,7.0,61,0.00,,,0.00,VWS V14.01,2013-01-21 04:20:00,
2013-01-20 23:27:00,62.5,48.9,30.06,ENE,59,3.0,7.0,61,0.00,,,0.00,VWS V14.01,2013-01-21 04:27:00,
2013-01-20 23:30:00,62.5,48.9,30.06,ENE,59,3.0,7.0,61,0.00,,,0.00,VWS V14.01,2013-01-21 04:30:00,
2013-01-20 23:37:00,62.7,49.1,30.06,NE,51,4.0,7.0,61,0.00,,,0.00,VWS V14.01,2013-01-21 04:37:00,
2013-01-20 23:40:00,62.7,49.1,30.06,NE,51,4.0,7.0,61,0.00,,,0.00,VWS V14.01,2013-01-21 04:40:00,
2013-01-20 23:47:00,62.7,48.6,30.06,NE,47,3.0,6.0,60,0.00,,,0.00,VWS V14.01,2013-01-21 04:47:00,
2013-01-20 23:50:00,62.7,48.6,30.06,NE,47,3.0,6.0,60,0.00,,,0.00,VWS V14.01,2013-01-21 04:50:00,
2013-01-20 23:58:00,62.8,48.7,30.07,ENE,70,1.0,6.0,60,0.00,,,0.00,VWS V14.01,2013-01-21 04:58:00,